Weather History for Vlieland, Netherlands

Change the Weather History Date:

Sunday, November 10, 2013

  Actual Average Record
Temperature  
Mean Temperature 46 °F -  
Max Temperature 51 °F 49 °F 57 °F (2005)
Min Temperature 42 °F 43 °F 37 °F (2003)
Degree Days  
Heating Degree Days 18    
Moisture  
Dew Point 39 °F    
Average Humidity 74    
Maximum Humidity 87    
Minimum Humidity 58    
Precipitation  
Precipitation 0.00 in - - ()
Sea Level Pressure  
Sea Level Pressure 29.69 in    
Wind  
Wind Speed 19 mph ()    
Max Wind Speed 29 mph    
Max Gust Speed 34 mph    
Visibility 6.1 miles    
Events Rain , Thunderstorm    
Averages and records for this station are not official NWS values.
T = Trace of Precipitation, MM = Missing Value Source: Averaged Metar Reports

Daily Weather History Graph

Daily Weather History Graph

Search for Another Location

Airport:

Trip Planner

Search our weather history database for the weather conditions in past years. The results will help you decide how hot, cold, wet, or windy it might be!

Date:

Astronomy

Nov. 10, 2013 Rise Set
Actual Time 7:55 AM CET 4:51 PM CET
Civil Twilight 7:17 AM CET 5:30 PM CET
Nautical Twilight 6:35 AM CET 6:11 PM CET
Astronomical Twilight 5:55 AM CET 6:52 PM CET
Moon 1:43 PM CET (11/10) No Moon Set
Length of Visible Light 10h 12m
Length of Day
8h 56m
First Quarter, 52% of the Moon is Illuminated
Nov 10
First Quarter
Nov 17
Full
Nov 25
Last Quarter
Dec 3
New
Dec 9
First Quarter

Hourly Weather History & Observations

Time (CET) Temp. Windchill Dew Point Humidity Pressure Visibility Wind Dir Wind Speed Gust Speed Precip Events Conditions
12:20 AM 46.4 °F 39.5 °F 39.2 °F 76% 29.50 in 6.2 mi NW 17.3 mph - N/A   Partly Cloudy
12:25 AM 46.4 °F 39.5 °F 39.2 °F 76% 29.50 in 6.2 mi WNW 17.3 mph - N/A   Scattered Clouds
12:30 AM 46.4 °F 39.2 °F 39.2 °F 76% 29.50 in 6.2 mi WNW 18.4 mph - N/A   Scattered Clouds
12:55 AM 48.2 °F - 39.2 °F 71% 29.50 in 6.2 mi WNW 16.1 mph - N/A   Mostly Cloudy
1:05 AM 46.4 °F 39.2 °F 39.2 °F 76% 29.50 in 6.2 mi WNW 18.4 mph - N/A   Light Drizzle
1:09 AM 46.4 °F 39.2 °F 39.2 °F 76% 29.50 in 6.2 mi WNW 18.4 mph - N/A Thunderstorm Light Drizzle
1:13 AM 46.4 °F 38.7 °F 39.2 °F 76% 29.50 in 3.7 mi WNW 20.7 mph - N/A Rain , Thunderstorm Light Thunderstorms and Rain
1:14 AM 44.6 °F 36.1 °F 37.4 °F 76% 29.50 in 6.2 mi WNW 21.9 mph - N/A Rain , Thunderstorm Light Thunderstorms and Rain
1:21 AM 44.6 °F 35.7 °F 37.4 °F 76% 29.50 in - WNW 24.2 mph - N/A Rain Light Rain
1:25 AM 44.6 °F 35.7 °F 39.2 °F 81% 29.50 in 6.2 mi WNW 24.2 mph - N/A Rain Rain
1:30 AM 44.6 °F 36.4 °F 37.4 °F 76% 29.50 in 6.2 mi WNW 20.7 mph - N/A Thunderstorm Thunderstorm
1:32 AM 46.4 °F 39.2 °F 39.2 °F 76% 29.53 in 6.2 mi WNW 18.4 mph - N/A Rain , Thunderstorm Light Thunderstorms and Rain
1:41 AM 46.4 °F 38.7 °F 39.2 °F 76% 29.53 in 6.2 mi WNW 20.7 mph - N/A Thunderstorm Thunderstorm
1:49 AM 44.6 °F 34.9 °F 39.2 °F 81% 29.53 in 4.3 mi West 28.8 mph - N/A Thunderstorm Drizzle
1:55 AM 42.8 °F 33.3 °F 39.2 °F 87% 29.53 in 5.6 mi West 24.2 mph - N/A Thunderstorm Drizzle
2:02 AM 42.8 °F 36.2 °F 39.2 °F 87% 29.53 in 5.6 mi West 12.7 mph - N/A Thunderstorm Heavy Drizzle
2:12 AM 42.8 °F 36.6 °F 39.2 °F 87% 29.53 in 6.2 mi West 11.5 mph - N/A   Overcast
2:25 AM 44.6 °F 38.1 °F 39.2 °F 81% 29.53 in 6.2 mi West 13.8 mph 28.8 mph N/A   Overcast
2:27 AM 44.6 °F 36.4 °F 39.2 °F 81% 29.53 in 6.2 mi NW 20.7 mph - N/A Rain Rain
2:34 AM 44.6 °F 37.2 °F 39.2 °F 81% 29.53 in 6.2 mi NW 17.3 mph - N/A Rain Light Rain
2:39 AM 44.6 °F 38.1 °F 39.2 °F 81% 29.53 in 6.2 mi NNW 13.8 mph - N/A   Mostly Cloudy
2:43 AM 44.6 °F 38.4 °F 39.2 °F 81% 29.53 in 6.2 mi NNW 12.7 mph - N/A   Overcast
2:55 AM 44.6 °F 39.2 °F 39.2 °F 81% 29.53 in 6.2 mi WNW 10.4 mph - N/A   Overcast
2:59 AM 44.6 °F 38.4 °F 39.2 °F 81% 29.53 in 6.2 mi West 12.7 mph - N/A   Overcast
3:25 AM 46.4 °F 37.5 °F 39.2 °F 76% 29.53 in 6.2 mi NW 27.6 mph - N/A   Mostly Cloudy
3:55 AM 46.4 °F 39.8 °F 35.6 °F 66% 29.53 in 6.2 mi WNW 16.1 mph - N/A   Mostly Cloudy
4:04 AM 44.6 °F 35.9 °F 39.2 °F 81% 29.53 in 4.3 mi NW 23.0 mph - N/A Rain Light Rain
4:10 AM 42.8 °F 34.8 °F 39.2 °F 87% 29.53 in 5.6 mi NNW 17.3 mph - N/A Rain Rain Showers
4:14 AM 44.6 °F 38.4 °F 41.0 °F 87% 29.53 in 6.2 mi NNW 12.7 mph 24.2 mph N/A Rain Light Rain
4:25 AM 44.6 °F 38.1 °F 39.2 °F 81% 29.53 in 6.2 mi NNW 13.8 mph - N/A   Mostly Cloudy
4:30 AM 44.6 °F 37.8 °F 39.2 °F 81% 29.53 in 6.2 mi NNW 15.0 mph - N/A Thunderstorm Thunderstorm
4:45 AM 46.4 °F 38.3 °F 39.2 °F 76% 29.53 in 4.3 mi NNW 23.0 mph 34.5 mph N/A Thunderstorm Mostly Cloudy
4:50 AM 44.6 °F 35.7 °F 39.2 °F 81% 29.53 in 6.2 mi NW 24.2 mph - N/A Rain , Thunderstorm Light Thunderstorms and Rain
4:55 AM 44.6 °F 35.7 °F 39.2 °F 81% 29.53 in 6.2 mi NNW 24.2 mph - N/A Rain , Thunderstorm Light Thunderstorms and Rain
4:59 AM 44.6 °F 35.5 °F 39.2 °F 81% 29.53 in 6.2 mi NNW 25.3 mph - N/A Thunderstorm Thunderstorm
5:09 AM 44.6 °F 36.1 °F 37.4 °F 76% 29.56 in 6.2 mi NNW 21.9 mph - N/A   Mostly Cloudy
5:25 AM 44.6 °F 36.1 °F 37.4 °F 76% 29.56 in 6.2 mi NNW 21.9 mph - N/A   Mostly Cloudy
5:45 AM 44.6 °F 37.4 °F 37.4 °F 76% 29.56 in 6.2 mi NW 16.1 mph - N/A   Mostly Cloudy
5:55 AM 44.6 °F 37.4 °F 37.4 °F 76% 29.56 in 6.2 mi NW 16.1 mph - N/A Rain Drizzle
6:00 AM 44.6 °F 38.1 °F 37.4 °F 76% 29.56 in 6.2 mi NW 13.8 mph - N/A   Mostly Cloudy
6:25 AM 46.4 °F 40.1 °F 37.4 °F 71% 29.56 in 6.2 mi NW 15.0 mph - N/A   Mostly Cloudy
6:55 AM 46.4 °F 38.7 °F 37.4 °F 71% 29.56 in 6.2 mi NNW 20.7 mph - N/A   Mostly Cloudy
7:25 AM 46.4 °F 38.5 °F 37.4 °F 71% 29.59 in 6.2 mi NNW 21.9 mph - N/A   Mostly Cloudy
7:33 AM 46.4 °F 38.5 °F 37.4 °F 71% 29.59 in 6.2 mi NNW 21.9 mph - N/A   Mostly Cloudy
7:37 AM 46.4 °F 38.7 °F 37.4 °F 71% 29.59 in 6.2 mi NNW 20.7 mph - N/A   Scattered Clouds
7:55 AM 46.4 °F 39.8 °F 37.4 °F 71% 29.59 in 6.2 mi North 16.1 mph - N/A   Mostly Cloudy
8:10 AM 46.4 °F 39.5 °F 37.4 °F 71% 29.59 in 6.2 mi North 17.3 mph - N/A   Mostly Cloudy
8:15 AM 46.4 °F 38.7 °F 39.2 °F 76% 29.62 in 6.2 mi North 20.7 mph - N/A   Mostly Cloudy
8:25 AM 46.4 °F 38.3 °F 39.2 °F 76% 29.62 in 6.2 mi NNW 23.0 mph - N/A   Heavy Drizzle
8:26 AM 44.6 °F 35.7 °F 37.4 °F 76% 29.62 in 6.2 mi NW 24.2 mph - N/A   Light Drizzle
8:33 AM 44.6 °F 35.3 °F 37.4 °F 76% 29.62 in 3.1 mi NW 26.5 mph - N/A   Overcast
8:39 AM 44.6 °F 35.7 °F 39.2 °F 81% 29.62 in 6.2 mi NW 24.2 mph - N/A Rain Light Rain
8:43 AM 44.6 °F 36.1 °F 39.2 °F 81% 29.62 in - NNW 21.9 mph - N/A Rain Light Rain
8:44 AM 44.6 °F 36.6 °F 39.2 °F 81% 29.62 in 6.2 mi NNW 19.6 mph - N/A Rain Rain
8:51 AM 44.6 °F 37.8 °F 39.2 °F 81% 29.62 in 6.2 mi NNW 15.0 mph - N/A   Mostly Cloudy
8:55 AM 44.6 °F 37.4 °F 39.2 °F 81% 29.62 in 6.2 mi NNW 16.1 mph - N/A   Mostly Cloudy
8:59 AM 46.4 °F 39.5 °F 39.2 °F 76% 29.62 in 6.2 mi NNW 17.3 mph - N/A   Mostly Cloudy
9:12 AM 46.4 °F 38.7 °F 39.2 °F 76% 29.65 in 6.2 mi North 20.7 mph - N/A   Mostly Cloudy
9:25 AM 46.4 °F 38.5 °F 37.4 °F 71% 29.65 in 6.2 mi NNW 21.9 mph - N/A   Overcast
9:55 AM 46.4 °F 39.5 °F 39.2 °F 76% 29.68 in 6.2 mi North 17.3 mph - N/A   Mostly Cloudy
10:05 AM 46.4 °F 39.0 °F 39.2 °F 76% 29.68 in 6.2 mi North 19.6 mph - N/A   Scattered Clouds
10:25 AM 46.4 °F 39.5 °F 37.4 °F 71% 29.68 in 6.2 mi North 17.3 mph - N/A   Partly Cloudy
10:42 AM 48.2 °F - 37.4 °F 66% 29.71 in 6.2 mi NNW 20.7 mph - N/A   Scattered Clouds
10:55 AM 48.2 °F - 39.2 °F 71% 29.71 in 6.2 mi NNW 19.6 mph - N/A   Partly Cloudy
11:25 AM 50.0 °F - 41.0 °F 71% 29.74 in 6.2 mi NNW 21.9 mph - N/A   Overcast
11:32 AM 48.2 °F - 41.0 °F 76% 29.74 in 6.2 mi NW 24.2 mph - N/A   Scattered Clouds
11:47 AM 48.2 °F - 39.2 °F 71% 29.74 in 6.2 mi NNW 20.7 mph - N/A   Unknown
11:55 AM 48.2 °F - 39.2 °F 71% 29.74 in 6.2 mi NNW 19.6 mph - N/A   Scattered Clouds
12:25 PM 48.2 °F - 39.2 °F 71% 29.77 in 6.2 mi NNW 23.0 mph - N/A   Overcast
12:32 PM 50.0 °F - 39.2 °F 66% 29.77 in 6.2 mi NNW 20.7 mph - N/A   Scattered Clouds
12:55 PM 50.0 °F - 39.2 °F 66% 29.80 in 6.2 mi North 21.9 mph - N/A Rain Light Rain
1:12 PM 48.2 °F - 39.2 °F 71% 29.80 in 6.2 mi NNW 23.0 mph - N/A Rain Light Rain
1:25 PM 50.0 °F - 37.4 °F 62% 29.80 in 6.2 mi NNW 20.7 mph - N/A   Mostly Cloudy
1:55 PM 51.8 °F - 37.4 °F 58% 29.83 in 6.2 mi NNW 25.3 mph - N/A   Unknown
2:25 PM 50.0 °F - 39.2 °F 66% 29.86 in 6.2 mi NNW 26.5 mph - N/A   Scattered Clouds
2:55 PM 50.0 °F - 39.2 °F 66% 29.86 in 6.2 mi NNW 26.5 mph - N/A   Scattered Clouds
3:25 PM 50.0 °F - 39.2 °F 66% 29.89 in 6.2 mi NNW 25.3 mph - N/A   Scattered Clouds
3:55 PM 50.0 °F - 41.0 °F 71% 29.92 in 6.2 mi NNW 27.6 mph - N/A   Mostly Cloudy
4:25 PM 50.0 °F - 39.2 °F 66% 29.95 in 6.2 mi NNW 27.6 mph - N/A   Scattered Clouds
4:55 PM 50.0 °F - 37.4 °F 62% 29.95 in 6.2 mi NNW 26.5 mph - N/A   Partly Cloudy
5:25 PM 50.0 °F - 39.2 °F 66% 29.98 in 6.2 mi NNW 26.5 mph - N/A   Mostly Cloudy
5:55 PM 50.0 °F - 41.0 °F 71% 30.01 in 6.2 mi NNW 26.5 mph - N/A   Partly Cloudy
6:25 PM 50.0 °F - 39.2 °F 66% 30.04 in 6.2 mi NNW 26.5 mph - N/A   Scattered Clouds
6:50 PM 50.0 °F - 37.4 °F 62% 30.04 in 6.2 mi NNW 25.3 mph - N/A   Partly Cloudy
6:55 PM 50.0 °F - 39.2 °F 66% 30.04 in 6.2 mi NNW 25.3 mph - N/A   Partly Cloudy
6:57 PM 50.0 °F - 39.2 °F 66% 30.04 in 6.2 mi NNW 25.3 mph - N/A   Mostly Cloudy
7:25 PM 50.0 °F - 39.2 °F 66% 30.06 in 6.2 mi NNW 23.0 mph - N/A   Partly Cloudy
7:55 PM 50.0 °F - 39.2 °F 66% 30.09 in 6.2 mi NNW 25.3 mph - N/A   Scattered Clouds
8:25 PM 50.0 °F - 37.4 °F 62% 30.09 in 6.2 mi NNW 23.0 mph - N/A   Partly Cloudy
8:55 PM 50.0 °F - 39.2 °F 66% 30.12 in 6.2 mi NNW 20.7 mph - N/A   Scattered Clouds
9:25 PM 48.2 °F - 41.0 °F 76% 30.12 in 6.2 mi NW 19.6 mph - N/A   Partly Cloudy
9:55 PM 48.2 °F - 41.0 °F 76% 30.15 in 6.2 mi North 15.0 mph - N/A   Partly Cloudy
10:25 PM 48.2 °F - 41.0 °F 76% 30.15 in 6.2 mi NNW 16.1 mph - N/A   Partly Cloudy
10:55 PM 48.2 °F - 39.2 °F 71% 30.15 in 6.2 mi NNW 17.3 mph - N/A   Partly Cloudy
11:25 PM 48.2 °F - 39.2 °F 71% 30.15 in 6.2 mi NNW 17.3 mph - N/A   Unknown
11:55 PM 48.2 °F - 39.2 °F 71% 30.18 in 6.2 mi NNW 13.8 mph - N/A   Partly Cloudy